TimeEST,TemperatureF,Dew PointF,Humidity,Sea Level PressureIn,VisibilityMPH,Wind Direction,Wind SpeedMPH,Gust SpeedMPH,PrecipitationIn,Events,Conditions,WindDirDegrees,DateUTC
12:53 AM,39.9,28.0,63,29.96,10.0,WNW,6.9,-,N/A,,Mostly Cloudy,290,2011-12-01 05:53:00
1:53 AM,37.4,28.4,70,29.99,10.0,WNW,5.8,-,N/A,,Partly Cloudy,300,2011-12-01 06:53:00
2:53 AM,36.0,28.0,73,30.02,10.0,WNW,8.1,-,N/A,,Clear,300,2011-12-01 07:53:00
3:53 AM,36.0,23.0,59,30.04,10.0,NW,3.5,-,N/A,,Clear,310,2011-12-01 08:53:00
4:53 AM,33.1,24.1,70,30.07,10.0,NW,5.8,-,N/A,,Clear,310,2011-12-01 09:53:00
5:53 AM,30.9,24.1,76,30.11,10.0,Calm,Calm,-,N/A,,Clear,0,2011-12-01 10:53:00
6:53 AM,28.9,24.1,82,30.14,10.0,ESE,3.5,-,N/A,,Clear,110,2011-12-01 11:53:00
7:53 AM,30.0,24.1,79,30.17,10.0,Calm,Calm,-,N/A,,Clear,0,2011-12-01 12:53:00
8:53 AM,37.9,19.9,48,30.19,10.0,Calm,Calm,-,N/A,,Clear,0,2011-12-01 13:53:00
9:53 AM,39.9,18.0,41,30.20,10.0,NNW,8.1,-,N/A,,Clear,330,2011-12-01 14:53:00
10:53 AM,43.0,19.0,38,30.19,10.0,NNW,9.2,-,N/A,,Clear,330,2011-12-01 15:53:00
11:53 AM,45.0,21.0,39,30.17,10.0,North,9.2,-,N/A,,Clear,350,2011-12-01 16:53:00
12:53 PM,46.9,21.9,37,30.17,10.0,Variable,6.9,-,N/A,,Clear,0,2011-12-01 17:53:00
1:53 PM,48.9,21.9,35,30.17,10.0,NW,5.8,-,N/A,,Clear,320,2011-12-01 18:53:00
2:53 PM,48.2,23.0,37,30.18,10.0,NNE,5.8,-,N/A,,Clear,20,2011-12-01 19:53:00
3:53 PM,46.4,23.0,40,30.20,10.0,NE,5.8,-,N/A,,Clear,40,2011-12-01 20:53:00
4:53 PM,44.6,21.2,39,30.22,10.0,Calm,Calm,-,N/A,,Clear,0,2011-12-01 21:53:00
5:53 PM,37.9,26.1,62,30.23,10.0,Calm,Calm,-,N/A,,Clear,0,2011-12-01 22:53:00
6:53 PM,35.1,26.1,70,30.27,10.0,Calm,Calm,-,N/A,,Clear,0,2011-12-01 23:53:00
7:53 PM,32.0,25.0,75,30.27,10.0,Calm,Calm,-,N/A,,Clear,0,2011-12-02 00:53:00
8:53 PM,32.0,25.0,75,30.28,10.0,Calm,Calm,-,N/A,,Clear,0,2011-12-02 01:53:00
9:53 PM,30.0,24.1,79,30.29,10.0,Calm,Calm,-,N/A,,Clear,0,2011-12-02 02:53:00
10:53 PM,30.0,25.0,82,30.30,10.0,Calm,Calm,-,N/A,,Clear,0,2011-12-02 03:53:00
11:53 PM,28.4,24.8,86,30.31,10.0,Calm,Calm,-,N/A,,Clear,0,2011-12-02 04:53:00